AO-07 1 07530U 74089B 21322.45086983 -.00000044 00000-0 77567-5 0 9992 2 07530 101.8769 296.9038 0012496 86.0142 85.8334 12.53651439151028 UO-11 1 14781U 84021B 21322.53507189 .00000189 00000-0 29085-4 0 9990 2 14781 97.6021 314.8671 0007088 300.6184 59.4332 14.83367034 8770 LO-19 1 20442U 90005G 21322.51808446 .00000007 00000-0 19210-4 0 9996 2 20442 98.7633 279.5348 0012804 70.0388 290.2174 14.33006661662895 HUBBLE 1 20580U 90037B 21322.53151793 .00000687 00000-0 30439-4 0 9992 2 20580 28.4692 125.4611 0002481 285.0113 104.6328 15.09842550534301 MET-2/21 1 22782U 93055A 21322.58493990 .00000047 00000-0 29016-4 0 9993 2 22782 82.5495 181.5966 0021528 217.0350 171.8226 13.83841364424848 AO-27 1 22825U 93061C 21322.50822525 .00000013 00000-0 22942-4 0 9994 2 22825 98.9091 343.8463 0007605 310.9477 49.1045 14.30131947468270 IO-26 1 22826U 93061D 21322.51199305 .00000020 00000-0 25438-4 0 9990 2 22826 98.9034 343.7452 0008010 296.2470 63.7888 14.30473029468250 FO-29 1 24278U 96046B 21322.54824779 -.00000016 00000-0 16619-4 0 9999 2 24278 98.5472 9.9703 0351261 110.2953 253.6300 13.53107545247339 NOAA-15 1 25338U 98030A 21322.72576179 .00000052 00000-0 40325-4 0 9990 2 25338 98.6684 349.7703 0010297 185.9544 174.1516 14.26070509223233 GO-32 1 25397U 98043D 21322.80761095 -.00000011 00000-0 14598-4 0 9990 2 25397 98.7896 268.0512 0001684 37.2785 322.8510 14.23721938213670 ISS 1 25544U 98067A 21322.89732302 .00001661 00000-0 38829-4 0 9992 2 25544 51.6448 297.7346 0004684 214.5236 233.6816 15.48593254312576 NO-44 1 26931U 01043C 21322.74892357 -.00000020 00000-0 23964-4 0 9995 2 26931 67.0514 242.2250 0005839 277.8528 82.1910 14.30643687 51422 SO-50 1 27607U 02058C 21322.19269082 .00000116 00000-0 36991-4 0 9994 2 27607 64.5552 228.1867 0059787 338.4231 21.4352 14.75832318 17406 CO-55 1 27844U 03031E 21322.46566975 .00000092 00000-0 60964-4 0 9990 2 27844 98.6810 328.3502 0009811 359.3834 0.7330 14.22350905953872 CO-57 1 27848U 03031J 21322.50490749 .00000072 00000-0 52536-4 0 9998 2 27848 98.6861 328.9415 0009930 12.9203 347.2227 14.21922477953709 RS-22 1 27939U 03042A 21322.80069576 .00000237 00000-0 50935-4 0 9998 2 27939 98.1624 99.0270 0013631 148.5099 211.6926 14.67062446970158 NOAA-18 1 28654U 05018A 21322.78238813 .00000097 00000-0 76379-4 0 9991 2 28654 98.9774 28.1301 0014007 203.0948 156.9595 14.12658212850324 CO-58 1 28895U 05043F 21322.34765509 .00000224 00000-0 51627-4 0 9996 2 28895 98.0803 92.4249 0017980 86.6493 273.6766 14.64007408856520 Falconsat-3 1 30776U 07006E 21322.35750677 .00007960 00000-0 17668-3 0 9999 2 30776 35.4326 189.7611 0003552 262.5951 97.4374 15.43005957816879 CO-65 1 32785U 08021C 21322.44459911 .00000435 00000-0 51971-4 0 9992 2 32785 97.6307 295.4772 0012070 207.0677 152.9912 14.88895355735082 AAUSAT2 1 32788U 08021F 21322.75651857 .00000633 00000-0 61324-4 0 9995 2 32788 97.5168 311.0694 0012947 108.8067 251.4560 14.95947083737025 DO-64 1 32789U 08021G 21322.55029378 .00002850 00000-0 17953-3 0 9992 2 32789 97.3626 351.9420 0010636 340.4116 19.6703 15.09887036740074 CO-66 1 32791U 08021J 21322.52956101 .00000518 00000-0 56874-4 0 9990 2 32791 97.5884 301.3066 0013305 166.3730 193.7851 14.91653715735744 RS-30 1 32953U 08025A 21322.91626522 .00000021 00000-0 80971-4 0 9992 2 32953 82.5014 314.8649 0019667 3.8320 356.2907 12.43105816612174 PRISM 1 33493U 09002B 21322.37774497 .00000981 00000-0 88276-4 0 9994 2 33493 98.2078 292.5365 0015171 134.8299 225.4158 14.98082053697369 NOAA-19 1 33591U 09005A 21322.83152298 .00000049 00000-0 51625-4 0 9999 2 33591 99.1727 347.2894 0014705 61.5268 298.7382 14.12508911658718 SRMSAT 1 37841U 11058D 21322.55586280 .00000314 00000-0 27230-4 0 9993 2 37841 19.9719 89.6602 0011777 186.6327 257.1048 14.10712323521423 HRBE 1 37855U 11061F 21322.47407516 .00004074 00000-0 19721-3 0 9999 2 37855 101.7234 325.9750 0163638 332.3911 26.8682 15.08738801549391 RS-40 1 38735U 12041C 21322.86407208 -.00000001 00000-0 -79880-4 0 9998 2 38735 82.4817 36.8097 0018359 109.3959 250.9104 12.42583661422369 ZACUBE-1 1 39417U 13066B 21322.23119902 .00000576 00000-0 77536-4 0 9997 2 39417 97.6109 298.7413 0058992 18.4910 341.8429 14.81679211431849 Delfi-N3xt 1 39428U 13066N 21322.31536928 .00000519 00000-0 89426-4 0 9997 2 39428 97.7953 261.1558 0117976 232.2016 126.8461 14.68256283427548 GOMX-1 1 39430U 13066Q 21322.76926277 .00000488 00000-0 96532-4 0 9990 2 39430 97.8123 236.9636 0150326 349.3662 10.4379 14.59744015425551 LO-74 1 39440U 13066AA 21322.85031250 .00000432 00000-0 65965-4 0 9994 2 39440 97.6977 284.7485 0081109 94.5185 266.5296 14.76389577430400 AO-73 1 39444U 13066AE 21322.38973419 .00000714 00000-0 92496-4 0 9990 2 39444 97.6005 301.2791 0057726 7.5751 352.6322 14.82621194430242 SPROUT 1 39770U 14029E 21322.73977789 .00001290 00000-0 14340-3 0 9996 2 39770 97.9279 74.0234 0009869 63.7878 296.4353 14.88904502406296 DTUSAT-2 1 40030U 14033W 21322.77373531 .00000543 00000-0 63400-4 0 9993 2 40030 97.9227 250.0250 0012657 33.1333 327.0674 14.89180948402799 EO-80 1 40032U 14033Y 21322.53954705 .00000597 00000-0 69162-4 0 9997 2 40032 97.9234 249.7999 0012653 34.8410 325.3632 14.89143054402224 HODOYOSHI-1 1 40299U 14070B 21322.77543978 .00001459 00000-0 60830-4 0 9996 2 40299 97.2725 32.0876 0013238 155.7587 318.9399 15.25185003390935 FIREBIRD FU3 1 40377U 15003B 21322.47522423 .00003853 00000-0 13631-3 0 9995 2 40377 99.1131 136.3413 0113704 16.7032 343.7896 15.24067480376231 FIREBIRD FU4 1 40378U 15003C 21322.44594516 .00003936 00000-0 13883-3 0 9996 2 40378 99.1138 136.4737 0113736 16.5699 343.9201 15.24133408376237 GRIFEX 1 40379U 15003D 21322.72106418 .00002718 00000-0 10876-3 0 9994 2 40379 99.1136 124.7516 0125833 51.6418 309.6038 15.19286001375600 NO-84 1 40654U 15025D 21321.17235552 .00188844 24606-4 47044-3 0 2430 2 40654 54.9705 32.0422 0038232 107.2601 253.2731 15.94142330 31165 XW-2A 1 40903U 15049E 21322.80862484 .00005741 00000-0 11545-3 0 9991 2 40903 97.2173 16.7880 0012081 162.3446 309.4064 15.46943173346647 XW-2C 1 40906U 15049H 21322.79115917 .00001540 00000-0 80725-4 0 9994 2 40906 97.4910 323.2987 0014970 18.4336 106.2171 15.17206054340962 XW-2D 1 40907U 15049J 21322.81578853 .00001713 00000-0 88469-4 0 9995 2 40907 97.4904 323.1766 0014094 15.4962 107.4726 15.17589450341008 LILACSAT-2 1 40908U 15049K 21322.82230502 .00000730 00000-0 42919-4 0 9991 2 40908 97.5117 320.7964 0016553 31.3950 89.9970 15.14710325340597 XW-2E 1 40909U 15049L 21322.83710913 .00002459 00000-0 11615-3 0 9990 2 40909 97.4682 327.4012 0012732 0.4110 121.5515 15.20314953341382 XW-2F 1 40910U 15049M 21322.82575495 .00002500 00000-0 11969-3 0 9994 2 40910 97.4753 326.4827 0014120 359.5248 124.0783 15.19811408341165 XW-2B 1 40911U 15049N 21322.82707325 .00001573 00000-0 81717-4 0 9992 2 40911 97.4896 323.8448 0014045 16.5333 105.1688 15.17499152340894 DCBB 1 40912U 15049P 21322.82448036 .00002886 00000-0 12756-3 0 9998 2 40912 97.4444 330.8644 0012934 328.7015 155.7913 15.22457991341670 TW-1A 1 40928U 15051D 21322.81068005 .00009474 00000-0 17993-3 0 9999 2 40928 97.0661 344.1361 0010993 85.5959 0.8758 15.48420289345552 IO-86 1 40931U 15052B 21319.69701509 .00000641 00000-0 51411-7 0 9993 2 40931 5.9991 253.6849 0013681 22.5578 337.5343 14.76703516331697 ATHENOXAT-1 1 41168U 15077C 21322.87797044 .00003794 00000-0 15262-3 0 9998 2 41168 14.9835 204.9702 0010053 168.6176 276.0640 15.16681986328256 ChubuSat-2 1 41338U 16012B 21322.32364671 .00000614 00000-0 40495-4 0 9998 2 41338 31.0033 287.3620 0013725 218.9120 141.0528 15.00695085315739 ChubuSat-3 1 41339U 16012C 21322.59815107 .00000560 00000-0 36210-4 0 9993 2 41339 31.0116 282.6930 0013503 230.0047 129.9404 15.00829304315776 Horyu-4 1 41340U 16012D 21322.52986755 .00000973 00000-0 65501-4 0 9999 2 41340 31.0047 264.7222 0013836 262.9599 96.9463 15.02166753315975 e-st@r-II 1 41459U 16025D 21322.83202422 .00002993 00000-0 14622-3 0 9991 2 41459 98.1618 108.5556 0155834 261.9190 96.4353 15.09126735305694 AAUSAT4 1 41460U 16025E 21322.85549605 .00006196 00000-0 28019-3 0 9996 2 41460 98.1583 113.2838 0141711 242.9885 115.6824 15.12739894306049 LO-87 1 41557U 16033B 21322.83288193 .00003390 00000-0 11730-3 0 9997 2 41557 97.3936 55.9911 0013734 51.6745 96.7822 15.30491878305139 NuSat2 1 41558U 16033C 21322.81178984 .00003473 00000-0 11254-3 0 9995 2 41558 97.4078 60.5368 0012629 44.8837 70.5717 15.32619879305356 Lapan A3 1 41603U 16040E 21322.82921234 .00000363 00000-0 19760-4 0 9995 2 41603 97.2376 3.7406 0013200 173.2672 296.9838 15.20169836300036 Pratham 1 41783U 16059A 21322.60688535 .00000132 00000-0 34455-4 0 9996 2 41783 97.9451 7.2753 0034740 118.7829 241.6870 14.63190972274797 TY-1 1 41844U 16066D 21322.81737444 .00002107 00000-0 83599-4 0 9996 2 41844 97.3971 331.4801 0013108 319.6326 165.5396 15.26420230279448 CAS-2T 1 41847U 16066G 21322.43425060 .00000221 00000-0 42396-4 0 9990 2 41847 98.5826 22.0573 0365915 120.5752 243.2072 14.38285863264015 EO-88 1 42017U 17008BX 21322.45174751 .00004213 00000-0 15032-3 0 9998 2 42017 97.2999 27.2534 0004134 285.1932 74.8852 15.29416162264784 CAS-4B 1 42759U 17034B 21322.72325418 .00001026 00000-0 74322-4 0 9995 2 42759 43.0180 52.7815 0007383 39.0986 92.3743 15.10547774244479 CAS-4A 1 42761U 17034D 21322.70463662 .00000978 00000-0 71338-4 0 9999 2 42761 43.0183 51.8244 0007840 41.6239 86.2325 15.10634075244478 NIUSat 1 42766U 17036B 21322.38284113 .00002331 00000-0 10045-3 0 9994 2 42766 97.2320 2.9134 0014579 0.1241 359.9998 15.23452029244648 Aalto 1 1 42775U 17036L 21322.30082833 .00001816 00000-0 79338-4 0 9999 2 42775 97.2283 2.9921 0013193 0.3032 359.8211 15.23267862244614 URSA MAIOR 1 42776U 17036M 21322.73373494 .00001974 00000-0 85199-4 0 9990 2 42776 97.2297 3.9698 0012846 358.2576 1.8615 15.23596011244707 Max Valier Sat 1 42778U 17036P 21322.54637261 .00002071 00000-0 87434-4 0 9999 2 42778 97.2367 6.0022 0011402 1.4776 358.6494 15.24306321244755 Pegasus 1 42784U 17036V 21322.39284341 .00002720 00000-0 11071-3 0 9990 2 42784 97.2316 6.4285 0011139 4.8282 355.3062 15.25283985244810 NUDATSat 1 42787U 17036Y 21322.57600917 .00004357 00000-0 16318-3 0 9991 2 42787 97.2358 9.5708 0009976 356.7957 3.3222 15.27750293244852 SUCHAI 1 1 42788U 17036Z 21322.36976553 .00003363 00000-0 13226-3 0 9992 2 42788 97.2326 7.6132 0010489 1.8049 358.3225 15.26278982244955 SKCUBE 1 42789U 17036AA 21322.56014469 .00003016 00000-0 12012-3 0 9991 2 42789 97.2320 7.4290 0010396 1.8632 358.2644 15.25931774244888 VZLUSAT 1 1 42790U 17036AB 21322.57351175 .00004022 00000-0 15112-3 0 9994 2 42790 97.2353 9.5540 0009466 356.5768 3.5405 15.27697504245005 VENTA 1 1 42791U 17036AC 21322.54967364 .00002656 00000-0 10656-3 0 9994 2 42791 97.2316 7.4081 0010136 2.9772 357.1525 15.25791703244874 Robusta 1B 1 42792U 17036AD 21322.56827988 .00003018 00000-0 11918-3 0 9999 2 42792 97.2323 7.8814 0010020 2.2894 357.8389 15.26222130244926 D-SAT 1 42794U 17036AF 21322.51079860 .00000726 00000-0 66875-4 0 9990 2 42794 97.4560 334.1895 0126562 71.2445 290.2459 14.91777457240028 TechnoSat 1 42829U 17042E 21322.57295291 .00000435 00000-0 48689-4 0 9990 2 42829 97.4441 183.7297 0014104 358.8487 1.2697 14.91405077236651 QIKCOM-1 1 42983U 98067NF 21322.69517733 .00014205 00000-0 11452-3 0 9995 2 42983 51.6341 193.6279 0003446 190.4985 169.5942 15.71189637231615 AO-91 1 43017U 17073E 21322.44395631 .00000858 00000-0 70480-4 0 9992 2 43017 97.6925 220.2264 0254071 157.4446 203.8175 14.79951425215891 EcAMSat 1 43019U 98067NG 21322.77959926 .00276752 46394-4 36520-3 0 9999 2 43019 51.6326 136.0991 0005118 257.5631 102.4809 16.06254175314701 PICSAT 1 43132U 18004X 21322.45590090 .00003733 00000-0 14400-3 0 9996 2 43132 97.3970 35.5866 0009429 34.5774 325.6076 15.26887332214176 AO-92 1 43137U 18004AC 21322.46987899 .00002671 00000-0 10637-3 0 9997 2 43137 97.3941 34.8757 0009363 37.3624 322.8264 15.26078764214148 TianYi 2 1 43155U 18008A 21322.85408214 .00001883 00000-0 10987-3 0 9995 2 43155 97.3851 23.0742 0017691 149.9713 299.7305 15.13012229211419 Zhou Enlai 1 43156U 18008B 21322.83123691 .00002059 00000-0 12110-3 0 9993 2 43156 97.3898 22.8939 0015043 149.6949 322.5133 15.12660497211344 TianYi 6 1 43158U 18008D 21322.91290567 .00001938 00000-0 11629-3 0 9990 2 43158 97.3848 21.3188 0013956 148.4766 26.6348 15.12003961211275 S-Net D 1 43186U 18014G 21322.54666637 .00000799 00000-0 73976-4 0 9990 2 43186 97.6671 227.2696 0009357 287.5433 72.4766 14.97230449207352 S-Net B 1 43187U 18014H 21322.47981428 .00000799 00000-0 74004-4 0 9994 2 43187 97.6667 227.1646 0009369 287.7153 72.3046 14.97229712207346 S-Net A 1 43188U 18014J 21322.54681252 .00000806 00000-0 74558-4 0 9998 2 43188 97.6672 227.2823 0009351 287.5833 72.4367 14.97228780207357 S-Net C 1 43189U 18014K 21322.54732507 .00000827 00000-0 76434-4 0 9997 2 43189 97.6668 227.2220 0009333 287.4772 72.5429 14.97228371205900 FMN 1 1 43192U 18015A 21322.89252979 .00006269 00000-0 21851-3 0 9998 2 43192 97.5091 99.3977 0014650 59.4814 97.1850 15.29908597211181 Shaonian Xing 1 43199U 18015H 21322.85872850 .00004224 00000-0 15297-3 0 9993 2 43199 97.4872 95.8991 0016528 69.0210 81.9671 15.28826043211225 SurfSat 1 43614U 18070B 21321.91498249 .00007443 00000-0 16081-3 0 9996 2 43614 93.0269 10.0233 0015725 121.2026 239.0775 15.44392202178339 CP-7 DAVE 1 43615U 18070C 21322.09474629 .00007502 00000-0 16419-3 0 9994 2 43615 93.0272 10.0313 0015963 121.0416 239.2410 15.44005441178343 ELFIN-B 1 43616U 18070D 21322.41574059 .00012189 00000-0 22917-3 0 9996 2 43616 93.0223 10.5931 0015356 115.6315 244.6533 15.48420305178568 ELFIN-A 1 43617U 18070E 21322.12486559 .00014562 00000-0 26694-3 0 9995 2 43617 93.0275 11.4787 0014662 113.8281 246.4517 15.49146812178545 CubeBel-1 1 43666U 18083E 21322.79104630 .00002338 00000-0 11126-3 0 9995 2 43666 97.4439 349.1796 0014195 357.7281 112.0963 15.20082073169450 Changshagaoxin 1 43669U 18083H 21322.84436605 .00002185 00000-0 10814-3 0 9997 2 43669 97.4363 345.8393 0010343 357.0926 127.7720 15.18820555169316 Ten-Koh 1 43677U 18084G 21322.59021429 .00000256 00000-0 32028-4 0 9992 2 43677 97.9396 86.2086 0014754 244.4507 115.5185 14.90591993166266 PO-101 1 43678U 18084H 21322.72588564 .00000607 00000-0 65916-4 0 9998 2 43678 97.9433 88.9918 0008393 260.3181 99.7104 14.91837479166435 IRVINE 01 1 43693U 18088D 21322.08825928 .00008563 00000-0 31434-3 0 9992 2 43693 85.0322 92.7018 0015668 170.5952 189.5589 15.27657414167875 QO-100 1 43700U 18090A 21322.73774485 .00000157 00000-0 00000 0 0 9999 2 43700 0.0144 294.7156 0002428 322.0107 92.6762 1.00269430 11166 Reaktor Hello World 1 43743U 18096AA 21322.48355333 .00003319 00000-0 11702-3 0 9999 2 43743 97.3752 38.8030 0018298 90.6824 269.6513 15.29820548165676 MinXSS-2 1 43758U 18099A 21322.45836188 .00000807 00000-0 76334-4 0 9999 2 43758 97.6517 30.3489 0014213 250.7764 109.1920 14.96314300161543 AO-95 1 43770U 18099N 21322.41552016 .00000900 00000-0 86195-4 0 9994 2 43770 97.6498 29.0847 0012876 261.6931 98.2830 14.95548180161461 RANGE-B 1 43772U 18099Q 21322.47702748 .00001382 00000-0 12843-3 0 9994 2 43772 97.6593 30.3925 0012635 246.2514 113.7382 14.95916107161485 RANGE-A 1 43773U 18099R 21322.43465737 .00000038 00000-0 85903-5 0 9991 2 43773 97.6427 28.2641 0012144 247.6472 112.3462 14.95379972161450 MOVE-II 1 43780U 18099Y 21322.44275892 .00000652 00000-0 62728-4 0 9992 2 43780 97.6521 29.8423 0012077 257.4357 102.5514 14.96284308161496 SNUSat 2 1 43782U 18099AA 21322.42411929 .00000494 00000-0 49404-4 0 9995 2 43782 97.6499 29.4879 0011241 245.7666 114.2381 14.95774380161482 SnugLite 1 43784U 18099AC 21322.41877433 .00000766 00000-0 73425-4 0 9994 2 43784 97.6463 29.1698 0013418 254.4352 105.5388 14.95916749161508 ITASat 1 1 43786U 18099AE 21322.84092669 .00000073 00000-0 11672-4 0 9990 2 43786 97.6518 30.2853 0013771 252.7768 107.1946 14.95810434161569 EAGLET 1 1 43790U 18099AJ 21322.63952649 -.00000050 00000-0 61700-6 0 9990 2 43790 97.6509 30.5604 0012070 257.3642 102.6230 14.96131815161267 ESEO 1 43792U 18099AL 21322.45053606 .00000045 00000-0 90813-5 0 9996 2 43792 97.6468 29.8366 0011931 254.6663 105.3240 14.95834836161282 CSIM 1 43793U 18099AM 21322.44324439 .00000630 00000-0 59812-4 0 9994 2 43793 97.6516 30.5154 0011777 249.3043 110.6917 14.96953668161301 Astrocast 0.1 1 43798U 18099AS 21322.43016956 .00000350 00000-0 35893-4 0 9992 2 43798 97.6522 30.6229 0011014 234.6706 125.3486 14.96426377161546 JO-97 1 43803U 18099AX 21322.44294432 .00000300 00000-0 31761-4 0 9992 2 43803 97.6479 29.6350 0013750 253.7131 106.2579 14.96103308161514 Suomi 100 1 43804U 18099AY 21322.65258166 .00000566 00000-0 55426-4 0 9998 2 43804 97.6473 29.7922 0013842 252.7016 107.2691 14.96061083161551 Al Farabi 2 1 43805U 18099AZ 21322.49466584 .00001225 00000-0 11311-3 0 9993 2 43805 97.6505 29.9448 0013423 252.5925 107.3826 14.96354159161544 CHOMPTT 1 43855U 18104G 21322.72895793 .00002142 00000-0 84799-4 0 9999 2 43855 85.0389 191.2266 0014736 302.0772 57.9040 15.24704926162597 ISAT 1 43879U 18111D 21322.75961287 .00001214 00000-0 11070-3 0 9998 2 43879 97.6737 227.2048 0011598 311.2306 48.7927 14.96905427156137 UWE-4 1 43880U 18111E 21322.72383464 .00000301 00000-0 31094-4 0 9997 2 43880 97.6769 227.7397 0011314 312.5696 47.4570 14.97125186156168 Sparrow 1 43881U 18111F 21322.48780420 .00001348 00000-0 12147-3 0 9993 2 43881 97.6782 227.6718 0010952 310.9699 49.0574 14.97195805158138 Lume 1 1 43908U 18111AJ 21322.49906475 .00002668 00000-0 10252-3 0 9995 2 43908 97.2141 212.1706 0021799 103.3455 257.0217 15.27057460161175 FO-98 1 43933U 19003B 21322.38257362 .00024089 00000-0 74949-3 0 9990 2 43933 97.1672 358.4309 0013162 195.5660 164.5180 15.33215080157638 FO-99 1 43937U 19003F 21322.07558265 .00003339 00000-0 12889-3 0 9996 2 43937 97.1591 359.0343 0022460 182.8359 177.2757 15.26716486157697 MYSat 1 1 44045U 18092F 21322.49363702 .00007589 00000-0 18141-3 0 9998 2 44045 51.6383 33.3223 0010278 45.7047 314.4780 15.42475572155219 AstroCast 0.2 1 44083U 19018F 21322.64993857 .00003695 00000-0 15749-3 0 9991 2 44083 97.3549 20.7513 0013430 145.4412 214.7701 15.23485098146365 AISTechSat 3 1 44103U 19018AB 21322.80108831 .00002312 00000-0 96027-4 0 9996 2 44103 97.3421 21.3417 0013609 153.3510 300.3473 15.24748459146522 AISat 1 1 44104U 19018AC 21322.64800899 .00002644 00000-0 82061-4 0 9993 2 44104 97.4152 40.2894 0056085 164.6626 195.6333 15.32779871147287 Prox-1 1 44339U 19036A 21322.68179582 .00001304 00000-0 25459-3 0 9994 2 44339 24.0005 82.6354 0011054 65.4660 294.6983 14.53919659127724 Oculus-ASR 1 44348U 19036K 21322.32745609 .00026610 00000-0 33449-3 0 9999 2 44348 28.5078 186.1070 0306453 138.6788 223.7421 15.18393155132266 Armadillo 1 44352U 19036P 21322.54396779 .00041980 00000-0 45743-3 0 9995 2 44352 28.5267 149.2710 0260413 196.4182 162.7846 15.30300224132607 NO-104 1 44354U 19036R 21322.84620396 .00024110 00000-0 29367-3 0 9995 2 44354 28.5247 173.4192 0300140 156.8669 204.5751 15.20243672132424 NO-103 1 44355U 19036S 21322.57374970 .00048286 -60234-5 39774-3 0 9994 2 44355 28.5251 99.3196 0206745 277.7616 79.9558 15.45371460133155 Move-IIb 1 44398U 19038N 21322.56390349 .00003025 00000-0 16625-3 0 9991 2 44398 97.6028 286.1274 0024859 134.6403 225.6860 15.14616870131082 SONATE 1 44400U 19038Q 21322.57185396 .00001259 00000-0 74642-4 0 9991 2 44400 97.6102 285.8498 0025700 136.6579 223.6678 15.12963097131039 BeeSat 9 1 44412U 19038AC 21322.64155005 .00002228 00000-0 12585-3 0 9990 2 44412 97.6088 286.3296 0022881 139.0797 221.2156 15.13963864130771 JAISAT-1 1 44419U 19038F 21322.36374710 .00001946 00000-0 10899-3 0 9994 2 44419 97.6091 286.7217 0021830 137.7161 222.5758 15.14447642131081 LightSail-2 1 44420U 19036AC 21322.58151628 .00013888 00000-0 26593-2 0 9994 2 44420 24.0048 51.9512 0014986 76.3926 283.8235 14.62089408126055 Taurus 1 1 44530U 19059C 21322.80858962 .00000852 00000-0 25011-3 0 9993 2 44530 98.5506 54.4728 0013909 41.8144 318.4100 14.46305218115395 Duchifat 3 1 44854U 19089C 21322.86755395 .00001011 00000-0 86496-4 0 9990 2 44854 36.9646 267.2926 0009143 306.0718 53.9185 14.99800164106298 OPS-SAT 1 44878U 19092F 21322.23327946 .00001692 00000-0 88557-4 0 9993 2 44878 97.4758 143.5856 0013625 2.0718 358.0570 15.17141462106142 TO-108 1 44881U 19093C 21322.79916589 .00000136 00000-0 24097-4 0 9997 2 44881 97.9139 39.8583 0015716 146.6254 213.5961 14.81511054103583 FloripaSat 1 1 44885U 19093G 21322.79470106 .00000489 00000-0 67459-4 0 9991 2 44885 97.9160 40.6855 0015355 154.2541 205.9444 14.82469985103639 RS-44 1 44909U 19096E 21322.41234210 .00000022 00000-0 35817-4 0 9990 2 44909 82.5241 10.5132 0218516 93.1846 269.4280 12.79711225 88516 HO-107 1 45119U 19071J 21322.43688024 .00004285 00000-0 12521-3 0 9996 2 45119 51.6422 9.4974 0010976 122.9705 237.2335 15.37453374100844 Phoenix 1 45258U 98067RB 21322.31181234 .00021333 00000-0 24856-3 0 9997 2 45258 51.6374 276.7437 0006805 102.7985 257.3769 15.61597213 99208 AztechSat-1 1 45261U 98067RE 21322.78561678 .00280337 41306-4 76107-3 0 9991 2 45261 51.6263 245.9148 0008840 141.3606 218.8035 15.93649049 99675 QARMAN 1 45263U 98067RG 21322.39864861 .00074034 00000-0 48575-3 0 9995 2 45263 51.6345 261.5169 0008083 119.3804 240.8004 15.75025418 99476 Quetzal 1 1 45598U 98067RL 21322.26549330 .00059020 00000-0 47057-3 0 9995 2 45598 51.6366 269.6967 0003672 116.5660 243.5714 15.70570013 88627 BY70-2 1 45857U 20042B 21322.80727451 .00001770 00000-0 25467-3 0 9993 2 45857 97.9742 36.9190 0012133 80.6454 279.6128 14.77576606 74335 UPMSat 2 1 46276U 20061E 21322.47773978 .00000986 00000-0 53540-4 0 9990 2 46276 97.4185 33.0621 0002035 135.4536 224.6862 15.16809179 66888 AmicalSat 1 46287U 20061R 21322.44548634 .00001174 00000-0 74256-4 0 9995 2 46287 97.4737 32.2487 0001279 303.7066 56.4042 15.10911227 66592 SALSAT 1 46495U 20068K 21322.59336813 -.00000116 00000-0 -39143-5 0 9997 2 46495 97.7050 259.2767 0015376 273.4463 86.5005 15.03658450 62499 BY70-3 1 46839U 20079N 21322.88780130 .00004948 00000-0 14678-3 0 9997 2 46839 97.2275 33.6905 0007461 25.3449 94.8206 15.35252019 57885 SPOC 1 46921U 98067RR 21322.31454909 .00020485 00000-0 26235-3 0 9997 2 46921 51.6395 286.5938 0001164 37.0940 323.0133 15.59158026 58829 Bobcat-1 1 46922U 98067RS 21322.44145352 .00036665 00000-0 38823-3 0 9994 2 46922 51.6406 281.4752 0002370 66.4746 293.6498 15.63766161 58861 Neutron-1 1 46923U 98067RT 21322.53520503 .00016977 00000-0 21965-3 0 9993 2 46923 51.6403 285.8166 0001665 39.9513 320.1602 15.59032210 58879 CAPE 3 1 47309U 21002A 21322.59071428 .00003227 00000-0 15089-3 0 9994 2 47309 60.6855 75.3979 0041066 129.1144 231.3606 15.21596818 46337 AO-109 1 47311U 21002C 21322.74260647 .00002431 00000-0 11445-3 0 9995 2 47311 60.6862 73.3470 0036904 126.2751 234.1754 15.22414663 46365 MiTEE 1 1 47314U 21002F 21322.57490883 .00005017 00000-0 20953-3 0 9993 2 47314 60.6859 71.3085 0038944 117.7329 242.7718 15.24510849 46399 ExoCube 2 1 47319U 21002L 21322.35705246 .00002357 00000-0 11247-3 0 9996 2 47319 60.6849 75.3969 0037718 128.3994 232.0490 15.22031070 46258 UVSQ-SAT 1 47438U 21006AB 21322.44263437 .00001542 00000-0 89322-4 0 9998 2 47438 97.4692 20.7919 0011057 288.4378 71.5651 15.13638943 45341 YUSAT 1 1 47439U 21006AC 21322.44234623 .00001771 00000-0 10188-3 0 9991 2 47439 97.4697 20.8027 0010907 288.7197 71.2850 15.13710479 45346 SOMP 2b 1 47445U 21006AJ 21322.47433350 .00001434 00000-0 83768-4 0 9990 2 47445 97.4665 20.6402 0010733 292.8015 67.2082 15.13451570 45341 IDEASSat 1 47458U 21006AX 21322.43507718 .00001438 00000-0 84348-4 0 9999 2 47458 97.4755 20.8982 0009827 291.0285 68.9895 15.13311948 45335 RSP-01 1 47925U 98067SB 21322.36287348 .00020271 00000-0 28520-3 0 9990 2 47925 51.6407 293.6517 0000693 95.5761 264.5310 15.56643776 38705 TAUSAT-1 1 47926U 98067SC 21322.42518664 .00028232 00000-0 36647-3 0 9990 2 47926 51.6395 291.8044 0000650 124.8810 235.2244 15.58596449 38720 Tsuru 1 47927U 98067SD 21322.40249380 .00018681 00000-0 26989-3 0 9990 2 47927 51.6410 293.9153 0000548 115.2012 244.9036 15.55983046 38701 STARS-EC 1 47928U 98067SE 21322.49179272 .00028559 00000-0 37139-3 0 9996 2 47928 51.6399 292.2511 0004242 6.8422 353.2628 15.58535241 38718 Maya-2 1 47929U 98067SF 21322.39822267 .00019331 00000-0 27890-3 0 9996 2 47929 51.6406 293.8848 0000598 130.2019 229.9025 15.55994647 38662 OPUSAT-II 1 47930U 98067SG 21322.55170342 .00027630 00000-0 34996-3 0 9992 2 47930 51.6401 291.1635 0001738 97.9492 262.1698 15.59260787 38755 GuaraniSat-1 1 47931U 98067SH 21322.33109941 .00019604 00000-0 28237-3 0 9999 2 47931 51.6412 294.1912 0000608 129.2317 230.8729 15.56029021 38690 CubeSX-Sirius-HSE 1 47951U 21022V 21322.88824041 .00000811 00000-0 59595-4 0 9995 2 47951 97.5436 221.8387 0022416 141.6098 277.8382 15.06011086 36292 CubeSX-HSE 1 47952U 21022W 21322.88236163 .00001326 00000-0 94573-4 0 9995 2 47952 97.5442 221.8437 0022510 141.5282 280.0916 15.06054369 36295 KSU-Cubesat 1 47954U 21022Y 21322.39235164 .00001291 00000-0 91941-4 0 9990 2 47954 97.5457 221.4057 0022339 142.5193 217.7597 15.06165685 35945 GRBAlpha 1 47959U 21022AD 21322.88192902 .00001365 00000-0 97239-4 0 9999 2 47959 97.5445 221.8599 0022292 141.8352 276.9939 15.06060384 35115 Orbicraft-Zorkiy 1 47960U 21022AE 21322.80961189 .00001788 00000-0 12582-3 0 9990 2 47960 97.5467 221.8519 0022181 141.8451 305.1428 15.06141609 35792 STECCO 1 47962U 21022AG 21322.83528362 .00001173 00000-0 81501-4 0 9993 2 47962 97.5424 222.1578 0017532 135.8675 293.4762 15.07338663 35127 DO-111 1 47963U 21022AH 21322.66750210 .00003903 00000-0 25407-3 0 9999 2 47963 97.5459 222.2392 0020024 133.2064 227.0841 15.08370339 35134 MO-110 1 47964U 21022AJ 21322.44776096 .00001486 00000-0 10125-3 0 9991 2 47964 97.5446 221.9001 0020568 135.1523 225.1372 15.07631145 35073 FEES 1 48082U 21022AL 21322.18288339 .00002231 00000-0 15129-3 0 9990 2 48082 97.5460 221.5208 0016980 131.9355 228.3324 15.07342477 34737 RamSat 1 48850U 98067SL 21322.66534188 .00011884 00000-0 19529-3 0 9997 2 48850 51.6415 296.3874 0004443 13.8515 346.2597 15.52837905 24441 MO-112 1 48868U 98067SP 21322.43337887 .00030051 00000-0 42416-3 0 9996 2 48868 51.6397 296.3396 0004006 41.3641 318.7653 15.56307645 23206 TUBIN 1 48900U 21059X 21322.87744520 .00001090 00000-0 66303-4 0 9997 2 48900 97.5282 89.5363 0011881 106.3650 10.6083 15.12486245 22077 IT-SPINS 1 49017U 21013G 21322.52479530 .00001278 00000-0 66972-4 0 9995 2 49017 51.6091 326.1923 0007160 18.7826 341.3414 15.23391736 21606 LEDSAT 1 49069U 21073D 21322.48787613 .00001330 00000-0 91642-4 0 9998 2 49069 97.5497 34.5297 0026653 297.6395 62.2128 15.07311716 14046 CUTE 1 49263U 21088D 21322.44724189 .00000842 00000-0 69031-4 0 9999 2 49263 97.6194 29.5423 0020286 72.8002 287.5441 15.01734109 7744 Binar-1 1 49272U 98067SR 21322.31879566 .00012559 00000-0 21826-3 0 9993 2 49272 51.6415 300.0624 0003310 249.9168 110.1466 15.51200675 6758 Maya-3 1 49273U 98067SS 21322.31580450 .00015497 00000-0 26496-3 0 9997 2 49273 51.6415 300.0421 0002934 245.1678 114.9006 15.51461913 6755 Maya-4 1 49274U 98067ST 21322.31694339 .00015189 00000-0 26030-3 0 9992 2 49274 51.6415 300.0498 0002863 242.6080 117.4619 15.51413352 6752 CUAVA-1 1 49275U 98067SU 21322.84357885 .00015615 00000-0 26675-3 0 9992 2 49275 51.6431 297.3983 0002820 265.0394 172.8215 15.51479602 6788 TeikyoSat 4 1 49396U 21102B 21322.88409516 -.00000497 00000-0 -34971-4 0 9998 2 49396 97.5653 22.1630 0012496 236.8610 123.1405 15.00257372 1470 Z-Sat 1 49399U 21102E 21322.87323153 -.00000380 00000-0 -24428-4 0 9999 2 49399 97.5665 22.1798 0017967 217.5571 142.4399 15.01925227 1479 KOSEN 1 1 49402U 21102H 21322.86756394 -.00000077 00000-0 -12478-5 0 9996 2 49402 97.5602 22.1719 0021492 213.4663 146.5218 15.02799031 1471 /EX